Location: Geyikbay?r?
(36.8756°N, 30.4583°E)
Time: 00:15:38
(UTC+00:00)

Cosmos 1812 Rocket - Pass Details

Date: 05 August 2024
Orbit: 601 x 628 km, 82.5° (Epoch: 18 September)

Event Time Altitude Azimuth Distance (km) Brightness Sun altitude
Rises 19:48:24 0° 348° (NNW) 2,918 8.0 -27.6°
Reaches altitude 10° 19:50:40 10° 345° (NNW) 2,004 7.0 -27.9°
Enters shadow 19:54:11 50° 313° (NW) 800 4.4 -28.3°
